When you browse on this site, cookies collect data to enhance your experience and personalize the content and advertising you see.
Visit our Privacy Policy to learn more. By continuing to use the site, you agree to this use of cookies and data.
  • In Hungary
  • List of Countries
  • For 7 days
  • Water Temperature
  • Satellite Maps
  • Weather Map
  • News
  • Weather Widgets
  • user-avatar
    Login

    Hourly Weather Chikmagalur

    Today, 19 January, Saturday

    Time Temperature Precipitation Wind Pressure Humidity
    00:00 +18°C° 0 mm 1 mps 673 mmHg 49%
    01:00 +17°C° 0 mm 2 mps 673 mmHg 52%
    02:00 +17°C° 0 mm 2 mps 673 mmHg 55%
    03:00 +16°C° 0 mm 2 mps 673 mmHg 58%
    04:00 +16°C° 0 mm 2 mps 673 mmHg 62%
    05:00 +15°C° 0 mm 1 mps 672 mmHg 66%
    06:00 +18°C° 0 mm 1 mps 673 mmHg 62%
    07:00 +18°C° 0 mm 2 mps 674 mmHg 58%
    08:00 +19°C° 0 mm 2 mps 674 mmHg 55%
    09:00 +23°C° 0 mm 2 mps 675 mmHg 44%
    10:00 +25°C° 0 mm 3 mps 675 mmHg 33%
    11:00 +27°C° 0 mm 4 mps 676 mmHg 25%
    12:00 +28°C° 0 mm 4 mps 676 mmHg 22%
    13:00 +29°C° 0 mm 4 mps 675 mmHg 20%
    14:00 +30°C° 0 mm 4 mps 675 mmHg 17%
    15:00 +29°C° 0 mm 3 mps 674 mmHg 18%
    16:00 +28°C° 0 mm 3 mps 674 mmHg 19%
    17:00 +27°C° 0 mm 3 mps 674 mmHg 21%
    18:00 +25°C° 0 mm 2 mps 674 mmHg 22%
    19:00 +23°C° 0 mm 2 mps 674 mmHg 23%
    20:00 +20°C° 0 mm 2 mps 673 mmHg 24%
    21:00 +19°C° 0 mm 2 mps 674 mmHg 28%
    22:00 +18°C° 0 mm 2 mps 674 mmHg 31%
    23:00 +18°C° 0 mm 2 mps 674 mmHg 34%

    Tomorrow, 20 January, Sunday

    Time Temperature Precipitation Wind Pressure Humidity
    00:00 +17°C° 0 mm 2 mps 674 mmHg 40%
    01:00 +17°C° 0 mm 2 mps 673 mmHg 45%
    02:00 +16°C° 0 mm 2 mps 673 mmHg 51%
    03:00 +16°C° 0 mm 2 mps 673 mmHg 57%
    04:00 +15°C° 0 mm 2 mps 673 mmHg 63%
    05:00 +15°C° 0 mm 2 mps 673 mmHg 70%
    06:00 +16°C° 0 mm 2 mps 674 mmHg 67%
    07:00 +17°C° 0 mm 2 mps 675 mmHg 64%
    08:00 +18°C° 0 mm 2 mps 676 mmHg 61%
    09:00 +21°C° 0 mm 2 mps 676 mmHg 48%
    10:00 +24°C° 0 mm 3 mps 677 mmHg 35%
    11:00 +26°C° 0 mm 3 mps 677 mmHg 23%
    12:00 +27°C° 0 mm 3 mps 676 mmHg 21%
    13:00 +28°C° 0 mm 3 mps 676 mmHg 19%
    14:00 +29°C° 0 mm 3 mps 675 mmHg 17%
    15:00 +28°C° 0 mm 3 mps 675 mmHg 18%
    16:00 +28°C° 0 mm 2 mps 674 mmHg 20%
    17:00 +27°C° 0 mm 2 mps 674 mmHg 22%
    18:00 +25°C° 0 mm 2 mps 674 mmHg 23%
    19:00 +21°C° 0 mm 2 mps 674 mmHg 24%
    20:00 +20°C° 0 mm 1 mps 674 mmHg 25%
    21:00 +20°C° 0 mm 1 mps 674 mmHg 27%
    22:00 +19°C° 0 mm 1 mps 674 mmHg 29%
    23:00 +18°C° 0 mm 1 mps 674 mmHg 31%

    Day after tomorrow, 21 January, Monday

    Time Temperature Precipitation Wind Pressure Humidity
    00:00 +17°C° 0 mm 2 mps 674 mmHg 36%
    01:00 +16°C° 0 mm 2 mps 673 mmHg 41%
    02:00 +16°C° 0 mm 2 mps 673 mmHg 46%
    03:00 +16°C° 0 mm 2 mps 673 mmHg 53%
    04:00 +15°C° 0 mm 2 mps 673 mmHg 60%
    05:00 +15°C° 0 mm 2 mps 673 mmHg 67%
    06:00 +16°C° 0 mm 2 mps 673 mmHg 65%
    07:00 +17°C° 0 mm 2 mps 674 mmHg 63%
    08:00 +18°C° 0 mm 2 mps 675 mmHg 62%
    09:00 +21°C° 0 mm 2 mps 676 mmHg 49%
    10:00 +24°C° 0 mm 2 mps 676 mmHg 37%
    11:00 +27°C° 0 mm 2 mps 677 mmHg 24%
    12:00 +28°C° 0 mm 2 mps 676 mmHg 21%
    13:00 +29°C° 0 mm 2 mps 675 mmHg 18%
    14:00 +30°C° 0 mm 2 mps 675 mmHg 15%
    15:00 +29°C° 0 mm 2 mps 674 mmHg 17%
    16:00 +28°C° 0 mm 2 mps 674 mmHg 19%
    17:00 +27°C° 0 mm 1 mps 673 mmHg 21%
    18:00 +24°C° 0 mm 1 mps 673 mmHg 26%
    19:00 +22°C° 0 mm 1 mps 673 mmHg 30%
    20:00 +20°C° 0 mm 1 mps 673 mmHg 35%
    21:00 +19°C° 0 mm 1 mps 673 mmHg 41%
    22:00 +18°C° 0 mm 1 mps 673 mmHg 47%
    23:00 +16°C° 0 mm 1 mps 673 mmHg 54%

    22 January, Tuesday

    Time Temperature Precipitation Wind Pressure Humidity
    00:00 +16°C° 0 mm 1 mps 672 mmHg 54%
    01:00 +16°C° 0 mm 1 mps 672 mmHg 54%
    02:00 +15°C° 0 mm 1 mps 672 mmHg 54%
    03:00 +15°C° 0 mm 1 mps 672 mmHg 54%
    04:00 +15°C° 0 mm 1 mps 672 mmHg 55%
    05:00 +14°C° 0 mm 1 mps 672 mmHg 56%
    06:00 +16°C° 0 mm 1 mps 673 mmHg 53%
    07:00 +16°C° 0 mm 0 mps 674 mmHg 49%
    08:00 +18°C° 0 mm 0 mps 675 mmHg 46%
    09:00 +23°C° 0 mm 1 mps 675 mmHg 39%
    10:00 +25°C° 0 mm 1 mps 676 mmHg 32%
    11:00 +28°C° 0 mm 1 mps 677 mmHg 24%
    12:00 +29°C° 0 mm 1 mps 676 mmHg 23%
    13:00 +30°C° 0 mm 1 mps 675 mmHg 21%
    14:00 +31°C° 0 mm 1 mps 674 mmHg 20%
    15:00 +30°C° 0 mm 1 mps 674 mmHg 24%
    16:00 +29°C° 0 mm 1 mps 674 mmHg 27%
    17:00 +28°C° 0 mm 1 mps 673 mmHg 31%
    18:00 +25°C° 0 mm 1 mps 673 mmHg 43%
    19:00 +22°C° 0 mm 1 mps 673 mmHg 55%
    20:00 +20°C° 0 mm 1 mps 673 mmHg 68%
    21:00 +19°C° 0 mm 1 mps 673 mmHg 75%
    22:00 +19°C° 0 mm 1 mps 673 mmHg 82%
    23:00 +18°C° 0 mm 1 mps 673 mmHg 90%

    23 January, Wednesday

    Time Temperature Precipitation Wind Pressure Humidity
    00:00 +16°C° 0 mm 0 mps 673 mmHg 91%
    01:00 +15°C° 0 mm 0 mps 673 mmHg 92%
    02:00 +15°C° 0 mm 0 mps 672 mmHg 93%
    03:00 +15°C° 0 mm 0 mps 672 mmHg 94%
    04:00 +15°C° 0 mm 0 mps 672 mmHg 94%
    05:00 +14°C° 0 mm 0 mps 672 mmHg 94%
    06:00 +16°C° 0 mm 0 mps 673 mmHg 88%
    07:00 +17°C° 0 mm 0 mps 674 mmHg 81%
    08:00 +18°C° 0 mm 0 mps 675 mmHg 74%
    09:00 +21°C° 0 mm 0 mps 676 mmHg 62%
    10:00 +26°C° 0 mm 1 mps 676 mmHg 49%
    11:00 +29°C° 0 mm 1 mps 677 mmHg 37%
    12:00 +29°C° 0 mm 1 mps 676 mmHg 33%
    13:00 +30°C° 0 mm 1 mps 675 mmHg 30%
    14:00 +31°C° 0 mm 1 mps 674 mmHg 26%
    15:00 +30°C° 0 mm 1 mps 674 mmHg 29%
    16:00 +29°C° 0 mm 1 mps 674 mmHg 31%
    17:00 +28°C° 0 mm 1 mps 673 mmHg 33%
    18:00 +26°C° 0 mm 1 mps 674 mmHg 42%
    19:00 +24°C° 0 mm 1 mps 674 mmHg 50%
    20:00 +21°C° 0 mm 1 mps 674 mmHg 58%
    21:00 +21°C° 0 mm 1 mps 674 mmHg 64%
    22:00 +20°C° 0 mm 1 mps 673 mmHg 71%
    23:00 +19°C° 0 mm 1 mps 673 mmHg 77%

    24 January, Thursday

    Time Temperature Precipitation Wind Pressure Humidity
    00:00 +19°C° 0 mm 1 mps 673 mmHg 76%
    01:00 +18°C° 0 mm 1 mps 673 mmHg 75%
    02:00 +18°C° 0 mm 1 mps 673 mmHg 74%
    03:00 +18°C° 0 mm 1 mps 673 mmHg 74%
    04:00 +16°C° 0 mm 1 mps 673 mmHg 73%
    05:00 +16°C° 0 mm 1 mps 673 mmHg 73%
    06:00 +18°C° 0 mm 1 mps 673 mmHg 71%
    07:00 +18°C° 0 mm 2 mps 674 mmHg 68%
    08:00 +19°C° 0 mm 2 mps 675 mmHg 66%
    09:00 +23°C° 0 mm 2 mps 676 mmHg 56%
    10:00 +26°C° 0 mm 2 mps 676 mmHg 46%
    11:00 +28°C° 0 mm 2 mps 676 mmHg 36%
    12:00 +29°C° 0 mm 2 mps 676 mmHg 33%
    13:00 +30°C° 0 mm 2 mps 675 mmHg 30%
    14:00 +31°C° 0 mm 2 mps 674 mmHg 28%
    15:00 +30°C° 0 mm 2 mps 674 mmHg 30%
    16:00 +29°C° 0 mm 2 mps 674 mmHg 33%
    17:00 +28°C° 0 mm 2 mps 673 mmHg 35%
    18:00 +26°C° 0 mm 1 mps 673 mmHg 47%
    19:00 +23°C° 0 mm 1 mps 673 mmHg 59%
    20:00 +21°C° 0 mm 1 mps 673 mmHg 71%
    21:00 +20°C° 0 mm 1 mps 673 mmHg 78%
    22:00 +20°C° 0 mm 1 mps 673 mmHg 85%
    23:00 +19°C° 0 mm 1 mps 673 mmHg 93%
    Show more